User: anonymous   Login
Location: Unspecified
(0.0000°N, 0.0000°E)
Time: 13:45:03
(UTC+00:00)
Language:

RESURS DK-1 - Orbit

View from above orbital plane
View from above orbital plane
View from above satellite
View from above satellite

Ground track
Ground track

The orbit data is extracted from the following two-line orbital elements,

1 29228U 06021A   18019.18311171  .00000097  00000-0  14695-4 0  9999
2 29228  69.9353 268.4910 0005120 332.8128  27.2763 15.02274489640532
Epoch (UTC): 19 January 2018 04:23:40
Eccentricity: 0.0005120
inclination: 69.9353°
perigee height: 556 km
apogee height: 563 km
right ascension of ascending node: 268.4910°
argument of perigee: 332.8128°
revolutions per day: 15.02274489
mean anomaly at epoch: 27.2763°
orbit number at epoch: 64053

The dashed part of the orbit path shows where the satellite is in the earth's shadow,  

DLR